Regional Weather Roundup
Issued by NWS

Home | Current Version | Previous Version | Graphics & Text | Print | Product List | Glossary On
Versions: 1 2 3 4 5 6 7 8 9 10 11 12 13 14 15 16 17 18 19 20 21 22 23 24 25 26 27 28 29 30 31 32 33 34 35 36 37 38 39 40 41 42 43 44 45 46 47 48 49 50
000
ASUS44 KMEG 060200
RWRTN
TENNESSEE HOURLY STATE WEATHER ROUNDUP
NATIONAL WEATHER SERVICE MEMPHIS TN
800 PM CST MON DEC 05 2016

TNZ002-004-019-021-049-052-054-088>092-060300-
WEST TENNESSEE

CITY           SKY/WX    TMP DP  RH WIND       PRES   REMARKS
MEMPHIS INTL   LGT RAIN  47  46  97 E10       29.76F
NWS MEMPHIS      N/A     46 N/A N/A MISG        N/A
JACKSON        CLOUDY    46  44  93 CALM      29.82R
DYERSBURG      CLOUDY   N/A N/A N/A E7        29.80F
PARIS          CLOUDY    39  37  93 E8        29.82S WCI  34
LEXINGTON      CLOUDY    45  45 100 NE7       29.79F
$$

TNZ008-025-027-028-033-062-065-066-060300-
NORTH MIDDLE TENNESSEE

CITY           SKY/WX    TMP DP  RH WIND       PRES   REMARKS
NASHVILLE      DRIZZLE   47  44  90 NE5       29.82F
CLARKSVILLE    CLOUDY    44  39  82 E8        29.85F
SMYRNA         CLOUDY    47  46  97 E5        29.83F
CROSSVILLE     CLOUDY    47  45  93 SE6       29.88R
$$

TNZ061-075-076-078-094-096-097-060300-
SOUTH MIDDLE TENNESSEE

CITY           SKY/WX    TMP DP  RH WIND       PRES   REMARKS
TULLAHOMA      CLOUDY    48  48 100 E3        29.82F
WINCHESTER     CLOUDY    52  48  87 NE3       29.84R
SHELBYVILLE    CLOUDY    50  48  93 E3        29.82F
$$

TNZ017-018-042-046-047-060300-
NORTHEAST TENNESSEE

CITY           SKY/WX    TMP DP  RH WIND       PRES   REMARKS
TRI CITIES     LGT RAIN  48  45  89 CALM      29.95S
$$

TNZ012-013-036-069-073-074-060300-
CENTRAL EAST TENNESSEE

CITY           SKY/WX    TMP DP  RH WIND       PRES   REMARKS
KNOXVILLE      LGT RAIN  49  47  93 NE7       29.88F
OAK RIDGE      CLOUDY    50  46  86 VRB3      29.91F
GATLINBURG     PTCLDY    48  46  93 E3        29.90F
$$

TNZ083-085-099-060300-
SOUTHEAST TENNESSEE

CITY           SKY/WX    TMP DP  RH WIND       PRES   REMARKS
CHATTANOOGA    LGT RAIN  50  48  93 NE5       29.85F FOG
$$

SKY/WX REPORTED AS FAIR MEANS FEW OR NO CLOUDS BELOW
12 THOUSAND FEET.




USA.gov is the U.S. government's official web portal to all federal, state and local government web resources and services.